WC4PEM-11 Weather Reports


time (UTC)temp
F
wind
direction
speed
knots
gust
knots
rain 1hr
in
rain 24hr
in
rain mn
in
humidity
%
barometer
mb
20260503072810 66 34 6.1 12.2 0.00 0.01 0.01 97 1014.1
20260503072310 66 15 6.1 10.4 0.00 0.01 0.01 97 1014.0
20260503072007 67 340 7.0 11.3 0.00 0.01 0.01 96 1013.9
20260503071810 67 336 7.0 12.2 0.00 0.01 0.01 97 1013.9
20260503071310 67 340 7.0 11.3 0.00 0.01 0.01 96 1013.9
20260503071150 67 15 7.0 13.9 0.00 0.01 0.01 96 1013.9
20260503070810 67 15 7.0 13.9 0.00 0.01 0.01 96 1013.9
20260503070517 69 319 3.5 7.0 0.00 0.01 0.01 97 1014.1
20260503070310 68 337 5.2 9.6 0.00 0.01 0.01 97 1014.0
20260503060310 69 294 2.6 4.3 0.00 0.01 0.01 96 1014.0
20260503054810 69 317 2.6 3.5 0.00 0.01 0.01 96 1014.2
20260503054355 69 328 2.6 4.3 0.00 0.01 0.01 96 1014.2
20260503054310 69 328 2.6 4.3 0.00 0.01 0.01 96 1014.2
20260503053810 69 51 2.6 3.5 0.00 0.01 0.01 96 1014.1
20260503053310 69 335 2.6 4.3 0.00 0.01 0.01 96 1014.0
20260503052933 70 336 3.5 5.2 0.00 0.01 0.01 95 1014.8
20260503052810 69 317 2.6 3.5 0.00 0.01 0.01 96 1014.2
20260503052310 69 309 2.6 3.5 0.00 0.01 0.01 96 1014.3
20260503051810 69 321 2.6 3.5 0.00 0.01 0.01 95 1014.3
20260503051311 70 323 3.5 4.3 0.00 0.01 0.01 95 1014.6
20260503050810 70 336 3.5 5.2 0.00 0.01 0.01 95 1014.8
20260503050311 70 312 2.6 5.2 0.00 0.01 0.01 95 1014.6
20260503045811 70 325 2.6 4.3 0.00 0.01 0.01 95 1014.5
20260503045311 70 325 2.6 3.5 0.00 0.01 0.01 94 1014.6
20260503044811 70 323 2.6 6.1 0.00 0.01 0.01 94 1014.7
20260503044311 70 294 2.6 5.2 0.00 0.01 0.01 94 1014.6
20260503043811 70 296 1.7 4.3 0.00 0.01 0.01 94 1014.4
20260503043311 70 296 1.7 2.6 0.00 0.01 0.01 94 1014.4
20260503042811 70 196 1.7 4.3 0.00 0.01 0.01 94 1014.3
20260503042700 70 178 1.7 3.5 0.00 0.01 0.01 94 1014.3
20260503042311 70 178 1.7 3.5 0.00 0.01 0.01 94 1014.3
20260503041811 70 195 1.7 3.5 0.00 0.01 0.01 94 1014.6
20260503041450 70 212 1.7 3.5 0.00 0.01 0.01 94 1014.4
20260503041311 70 212 1.7 3.5 0.00 0.01 0.01 94 1014.4
20260503041132 70 178 1.7 4.3 0.00 0.01 0.01 94 1014.2
20260503040811 70 178 1.7 4.3 0.00 0.01 0.01 94 1014.4
20260503040311 70 178 1.7 4.3 0.00 0.01 0.01 94 1014.2
20260503040256 70 230 1.7 3.5 0.00 0.01 0.01 94 1014.2
20260503035811 70 230 1.7 3.5 0.00 0.01 0.01 94 1014.2
20260503035311 70 193 2.6 4.3 0.00 0.01 0.01 94 1014.0
20260503034811 70 203 2.6 4.3 0.00 0.01 0.01 94 1013.8
20260503034742 70 200 2.6 4.3 0.00 0.01 0.01 94 1013.7
20260503034311 70 200 2.6 4.3 0.00 0.01 0.01 94 1013.7
20260503034258 70 195 2.6 4.3 0.00 0.01 0.01 94 1013.4
20260503033811 70 195 2.6 4.3 0.00 0.01 0.01 94 1013.4
20260503033611 70 184 2.6 6.1 0.00 0.01 0.01 94 1013.3
20260503033311 70 184 2.6 6.1 0.00 0.01 0.01 94 1013.3
20260503032811 70 174 2.6 4.3 0.00 0.01 0.01 94 1013.2
20260503032311 70 164 1.7 4.3 0.00 0.01 0.01 94 1013.1
20260503031811 70 165 1.7 3.5 0.00 0.01 0.01 94 1013.3
20260503031311 70 196 1.7 3.5 0.00 0.01 0.01 94 1013.2
20260503030811 70 193 1.7 2.6 0.00 0.01 0.01 94 1013.0
20260503030311 70 196 1.7 4.3 0.00 0.01 0.01 94 1013.0
20260503025811 70 183 1.7 4.3 0.00 0.01 0.01 94 1012.9
20260503025534 70 221 1.7 5.2 0.00 0.01 0.01 94 1013.2
20260503025311 70 221 1.7 5.2 0.00 0.01 0.01 94 1013.2
20260503025029 69 217 3.5 7.8 0.00 0.01 0.01 94 1013.3
20260503025016 70 230 3.5 5.2 0.00 0.01 0.01 94 1013.3
20260503024811 70 164 2.6 4.3 0.00 0.01 0.01 94 1013.3
20260503024311 70 230 3.5 5.2 0.00 0.01 0.01 94 1013.3
20260503023811 69 217 3.5 7.8 0.00 0.01 0.01 94 1013.3
20260503023311 69 227 3.5 6.1 0.01 0.01 0.01 94 1013.3
20260503022811 69 287 3.5 7.0 0.01 0.01 0.01 94 1013.2
20260503022311 69 225 3.5 7.0 0.01 0.01 0.01 95 1013.5
20260503022143 69 230 2.6 5.2 0.01 0.01 0.01 95 1013.1
20260503021811 69 171 2.6 4.3 0.01 0.01 0.01 95 1013.4
20260503021311 69 230 2.6 5.2 0.01 0.01 0.01 95 1013.1
20260503020811 69 193 2.6 5.2 0.01 0.01 0.01 95 1012.7
20260503020311 69 205 2.6 4.3 0.01 0.01 0.01 95 1012.5
20260503015811 69 250 2.6 5.2 0.01 0.01 0.01 95 1012.5
20260503015311 69 237 3.5 4.3 0.01 0.01 0.01 96 1012.5
20260503014811 69 196 3.5 6.1 0.01 0.01 0.01 96 1012.4
20260503014311 69 208 2.6 4.3 0.01 0.01 0.01 96 1012.4
20260503014150 69 221 2.6 5.2 0.01 0.01 0.01 96 1012.3
20260503014129 69 178 2.6 5.2 0.00 0.00 0.00 96 1012.3
20260503013811 69 221 2.6 5.2 0.01 0.01 0.01 96 1012.3
20260503013311 69 225 2.6 5.2 0.00 0.00 0.00 96 1012.1
20260503013241 69 221 2.6 5.2 0.00 0.00 0.00 96 1012.3
20260503013021 69 178 2.6 5.2 0.00 0.00 0.00 96 1012.3
20260503012813 69 221 2.6 5.2 0.00 0.00 0.00 96 1012.3
20260503012311 69 178 2.6 5.2 0.00 0.00 0.00 96 1012.3
20260503011811 69 246 2.6 7.0 0.00 0.00 0.00 96 1012.1
20260503011311 69 193 3.5 6.1 0.00 0.00 0.00 96 1012.2
20260503010956 69 257 3.5 6.1 0.00 0.00 0.00 96 1012.1
20260503010811 69 257 3.5 6.1 0.00 0.00 0.00 96 1012.1
20260503010311 69 237 2.6 5.2 0.00 0.00 0.00 96 1012.0
20260503005811 69 246 2.6 5.2 0.00 0.00 0.00 96 1011.9
20260503005311 69 227 3.5 6.1 0.00 0.00 0.00 96 1012.1
20260503004811 69 244 3.5 7.0 0.00 0.00 0.00 96 1012.0
20260503004311 69 219 4.3 7.8 0.00 0.00 0.00 96 1012.2
20260503004308 69 234 4.3 9.6 0.00 0.00 0.00 96 1012.2
20260503003811 69 234 4.3 9.6 0.00 0.00 0.00 96 1012.2
20260503003311 69 227 3.5 6.1 0.00 0.00 0.00 95 1012.0
20260503002811 69 185 2.6 6.1 0.00 0.00 0.00 95 1011.4
20260503002311 69 137 2.6 4.3 0.00 0.00 0.00 95 1010.6
20260503001811 69 227 4.3 7.8 0.00 0.00 0.00 95 1010.8
20260503001311 69 270 5.2 9.6 0.00 0.00 0.00 95 1010.8
20260503000811 70 124 5.2 11.3 0.00 0.00 0.00 95 1009.2
20260503000311 70 126 5.2 9.6 0.00 0.00 0.00 96 1009.8
20260502235811 69 146 4.3 7.8 0.00 0.00 0.00 95 1010.7
20260502235311 70 151 3.5 7.8 0.00 0.00 0.00 95 1011.1
20260502234811 70 230 3.5 5.2 0.00 0.00 0.00 96 1011.5
20260502234311 70 195 4.3 7.8 0.00 0.00 0.00 96 1011.1
20260502233811 70 167 4.3 7.0 0.00 0.00 0.00 96 1011.2
20260502233311 70 162 4.3 7.0 0.00 0.00 0.00 96 1011.4
20260502232811 70 165 3.5 8.7 0.00 0.00 0.00 96 1011.2
20260502232311 70 167 3.5 5.2 0.00 0.00 0.00 96 1011.1
20260502231811 70 144 5.2 7.0 0.00 0.00 0.00 96 1010.5
20260502231311 70 144 4.3 8.7 0.00 0.00 0.00 96 1011.0
20260502230811 70 153 2.6 7.0 0.00 0.00 0.00 96 1011.4
20260502230311 70 173 0.9 2.6 0.00 0.00 0.00 96 1011.3
20260502225858 70 238 1.7 2.6 0.00 0.00 0.00 96 1011.4
20260502225811 70 129 1.7 2.6 0.00 0.00 0.00 96 1011.1
20260502225311 70 219 1.7 4.3 0.00 0.00 0.00 96 1011.3
20260502224811 70 238 1.7 2.6 0.00 0.00 0.00 96 1011.4
20260502224652 70 287 0.9 2.6 0.00 0.00 0.00 95 1011.2
20260502224311 70 287 0.9 2.6 0.00 0.00 0.00 95 1011.2
20260502223913 70 169 0.9 2.6 0.00 0.00 0.00 95 1011.1
20260502223811 70 169 0.9 2.6 0.00 0.00 0.00 95 1011.1
20260502223311 70 178 1.7 2.6 0.00 0.00 0.00 95 1011.2
20260502222943 70 149 3.5 5.2 0.00 0.00 0.00 95 1011.0
20260502222811 70 149 3.5 5.2 0.00 0.00 0.00 95 1011.0
20260502222311 70 234 6.1 7.8 0.00 0.00 0.00 95 1010.9
20260502221811 70 147 8.7 10.4 0.00 0.00 0.00 95 1010.8
20260502221311 70 149 7.8 12.2 0.00 0.00 0.00 95 1010.9
20260502221231 70 141 6.1 10.4 0.00 0.00 0.00 95 1011.1
20260502221158 70 141 6.1 10.4 0.00 0.00 0.00 95 1011.1
20260502220811 70 141 6.1 10.4 0.00 0.00 0.00 95 1011.1
20260502220311 70 146 5.2 8.7 0.00 0.00 0.00 95 1011.2
20260502215811 70 182 4.3 7.8 0.00 0.00 0.00 95 1011.2
20260502215311 70 144 2.6 6.1 0.00 0.00 0.00 95 1011.2
20260502214811 70 229 3.5 6.1 0.00 0.00 0.00 95 1011.6
20260502214311 70 196 4.3 9.6 0.00 0.00 0.00 95 1011.6
20260502213811 70 202 3.5 7.0 0.00 0.00 0.00 94 1011.9
20260502213311 70 218 3.5 6.1 0.00 0.00 0.00 94 1011.7
20260502212843 70 221 3.5 7.0 0.00 0.00 0.00 93 1011.7
20260502212811 70 221 3.5 7.0 0.00 0.00 0.00 93 1011.7
20260502212616 70 243 4.3 7.8 0.00 0.00 0.00 93 1011.6
20260502212311 70 243 4.3 7.8 0.00 0.00 0.00 93 1011.6
20260502211811 70 271 5.2 7.8 0.00 0.00 0.00 92 1011.6
20260502211311 71 221 7.0 10.4 0.00 0.00 0.00 91 1011.3
20260502210811 71 251 7.8 13.9 0.00 0.00 0.00 90 1011.3
20260502210339 75 311 9.6 15.6 0.00 0.00 0.00 80 1011.4
20260502210311 72 286 6.1 13.0 0.00 0.00 0.00 88 1011.4
20260502205811 73 263 6.1 10.4 0.00 0.00 0.00 87 1011.2
20260502205344 73 262 7.8 12.2 0.00 0.00 0.00 85 1011.3
20260502205311 73 262 7.8 12.2 0.00 0.00 0.00 85 1011.3
20260502204811 74 191 8.7 15.6 0.00 0.00 0.00 83 1011.2
20260502204311 75 311 9.6 15.6 0.00 0.00 0.00 80 1011.4
20260502204024 77 269 8.7 17.4 0.00 0.00 0.00 77 1011.4
20260502203811 77 269 8.7 17.4 0.00 0.00 0.00 77 1011.4
20260502203311 80 326 5.2 14.8 0.00 0.00 0.00 76 1011.3
20260502202811 81 255 4.3 9.6 0.00 0.00 0.00 76 1011.0
20260502202311 81 259 4.3 8.7 0.00 0.00 0.00 76 1011.1
20260502201811 81 298 3.5 7.0 0.00 0.00 0.00 74 1010.9
20260502201556 82 239 5.2 10.4 0.00 0.00 0.00 71 1010.9
20260502201311 81 259 5.2 9.6 0.00 0.00 0.00 72 1011.0
20260502201017 81 255 6.1 12.2 0.00 0.00 0.00 71 1011.1
20260502200811 81 255 6.1 12.2 0.00 0.00 0.00 71 1011.1
20260502200311 82 269 6.1 12.2 0.00 0.00 0.00 71 1011.0
20260502195812 82 203 6.1 13.0 0.00 0.00 0.00 71 1010.9
20260502195311 82 239 5.2 10.4 0.00 0.00 0.00 71 1010.9
20260502194812 82 239 6.1 9.6 0.00 0.00 0.00 70 1010.9
20260502194524 83 268 6.1 9.6 0.00 0.00 0.00 69 1011.0
20260502194311 83 246 5.2 11.3 0.00 0.00 0.00 70 1010.9
20260502193812 83 268 6.1 9.6 0.00 0.00 0.00 69 1011.0
20260502193312 83 286 6.1 12.2 0.00 0.00 0.00 68 1011.0
20260502192812 83 261 5.2 9.6 0.00 0.00 0.00 69 1011.0
20260502192311 83 234 5.2 10.4 0.00 0.00 0.00 68 1011.0
20260502191812 83 241 6.1 8.7 0.00 0.00 0.00 68 1011.2
20260502191425 83 230 6.1 12.2 0.00 0.00 0.00 68 1011.2
20260502191312 83 225 7.0 10.4 0.00 0.00 0.00 67 1011.2
20260502190812 83 242 6.1 12.2 0.00 0.00 0.00 68 1011.0
20260502190312 83 286 6.1 9.6 0.00 0.00 0.00 68 1011.2
20260502185812 83 230 6.1 12.2 0.00 0.00 0.00 68 1011.2
20260502185430 85 259 8.7 15.6 0.00 0.00 0.00 65 1011.2
20260502185312 84 225 6.1 11.3 0.00 0.00 0.00 67 1011.2
20260502184812 84 265 7.0 11.3 0.00 0.00 0.00 67 1011.3
20260502184312 84 238 7.8 13.9 0.00 0.00 0.00 66 1011.2
20260502183812 85 239 7.0 16.5 0.00 0.00 0.00 65 1011.2
20260502183312 85 282 7.8 13.0 0.00 0.00 0.00 65 1011.1
20260502182812 85 259 8.7 15.6 0.00 0.00 0.00 65 1011.2
20260502182312 85 232 7.8 17.4 0.00 0.00 0.00 64 1011.3
20260502181812 85 229 8.7 14.8 0.00 0.00 0.00 64 1011.4
20260502181312 85 246 8.7 16.5 0.00 0.00 0.00 63 1011.4
20260502180812 85 254 8.7 14.8 0.00 0.00 0.00 64 1011.3
20260502180312 85 252 10.4 16.5 0.00 0.00 0.00 63 1011.2
20260502170312 87 216 11.3 21.7 0.00 0.00 0.00 64 1011.6
20260502164312 87 243 10.4 20.0 0.00 0.00 0.00 63 1011.5
20260502163812 87 225 9.6 23.5 0.00 0.00 0.00 63 1011.3
20260502163312 87 252 9.6 23.5 0.00 0.00 0.00 63 1011.4
20260502162812 87 203 7.8 16.5 0.00 0.00 0.00 64 1011.6
20260502162312 86 196 7.0 12.2 0.00 0.00 0.00 66 1011.4
20260502161812 86 186 8.7 13.0 0.00 0.00 0.00 66 1011.5
20260502161312 86 148 8.7 17.4 0.00 0.00 0.00 66 1011.6
20260502160812 85 198 7.8 18.2 0.00 0.00 0.00 68 1011.7
20260502160312 84 201 6.1 11.3 0.00 0.00 0.00 68 1011.7
20260502152312 83 226 7.0 14.8 0.00 0.00 0.00 71 1011.7
20260502151812 83 221 7.8 15.6 0.00 0.00 0.00 71 1011.6
20260502151312 84 216 8.7 18.2 0.00 0.00 0.00 69 1011.7
20260502150812 84 223 9.6 15.6 0.00 0.00 0.00 69 1011.5
20260502150555 83 212 7.8 14.8 0.00 0.00 0.00 71 1011.7
20260502150312 83 212 7.8 14.8 0.00 0.00 0.00 71 1011.7
20260502130312 73 132 4.3 8.7 0.00 0.00 0.00 89 1010.8
20260502123812 71 196 3.5 7.8 0.00 0.00 0.00 95 1010.6
20260502123312 70 214 4.3 7.8 0.00 0.00 0.00 97 1010.7
20260502122812 70 172 4.3 8.7 0.00 0.00 0.00 97 1010.8
20260502122312 69 153 4.3 8.7 0.00 0.00 0.00 97 1010.6
20260502121812 69 133 4.3 8.7 0.00 0.00 0.00 98 1010.4
20260502121521 68 142 3.5 7.8 0.00 0.00 0.00 97 1010.6
20260502121312 68 142 3.5 7.8 0.00 0.00 0.00 97 1010.6
20260502120812 68 153 3.5 6.1 0.00 0.00 0.00 98 1010.6
20260502120312 68 160 3.5 6.1 0.00 0.00 0.00 98 1010.7
20260502115928 68 193 3.5 6.1 0.00 0.00 0.00 98 1010.7
20260502115812 68 193 3.5 6.1 0.00 0.00 0.00 98 1010.7
20260502115312 68 178 4.3 7.0 0.00 0.00 0.00 98 1010.8
20260502114812 68 171 4.3 7.8 0.00 0.00 0.00 98 1010.7
20260502114312 68 153 4.3 8.7 0.00 0.00 0.00 98 1010.8
20260502113812 68 149 5.2 9.6 0.00 0.00 0.00 98 1010.8
20260502113346 68 121 4.3 7.0 0.00 0.00 0.00 98 1010.8
20260502113312 68 146 5.2 8.7 0.00 0.00 0.00 98 1010.8
20260502113111 68 121 4.3 7.0 0.00 0.00 0.00 98 1010.8
20260502112812 68 121 4.3 7.0 0.00 0.00 0.00 98 1010.8
20260502112625 67 157 5.2 8.7 0.00 0.00 0.00 97 1010.5
20260502112312 67 137 5.2 8.7 0.00 0.00 0.00 98 1010.8
20260502111812 67 157 5.2 8.7 0.00 0.00 0.00 97 1010.5
20260502111519 67 142 4.3 7.0 0.00 0.00 0.00 97 1010.3
20260502111312 67 148 3.5 7.0 0.00 0.00 0.00 97 1010.5
20260502110812 67 158 3.5 5.2 0.00 0.00 0.00 97 1010.5
20260502110312 67 146 3.5 7.8 0.00 0.00 0.00 97 1010.4
20260502105812 67 156 3.5 6.1 0.00 0.00 0.00 97 1010.4
20260502105312 67 142 4.3 7.0 0.00 0.00 0.00 97 1010.3
20260502104934 67 153 4.3 7.8 0.00 0.00 0.00 97 1010.4
20260502104812 67 153 4.3 7.8 0.00 0.00 0.00 97 1010.4
20260502104312 67 139 4.3 7.8 0.00 0.00 0.00 97 1010.4
20260502103812 67 157 5.2 8.7 0.00 0.00 0.00 97 1010.3
20260502103712 67 142 5.2 8.7 0.00 0.00 0.00 97 1010.2
20260502103312 67 142 5.2 8.7 0.00 0.00 0.00 97 1010.2
20260502102812 67 129 6.1 7.8 0.00 0.00 0.00 97 1010.1
20260502102345 67 150 6.1 7.8 0.00 0.00 0.00 97 1010.1
20260502102312 67 150 6.1 7.8 0.00 0.00 0.00 97 1010.1
20260502101812 67 140 6.1 8.7 0.00 0.00 0.00 97 1010.0
20260502101312 68 134 5.2 7.8 0.00 0.00 0.00 97 1010.0
20260502100813 68 139 3.5 7.0 0.00 0.00 0.00 97 1010.2
20260502100313 68 142 3.5 5.2 0.00 0.00 0.00 97 1010.3
20260502091313 66 133 1.7 2.6 0.00 0.00 0.00 97 1010.7
20260502090813 66 141 1.7 1.7 0.00 0.00 0.00 96 1010.8
20260502090313 66 142 1.7 2.6 0.00 0.00 0.00 96 1010.8